Terminal Aerodrome Forecast
Issued by NWS Milwaukee/Sullivan, WI

Home | Current Version | Previous Version | Text Only | Print | Product List | Glossary On
Versions: 1 2 3 4 5 6 7 8 9 10 11 12 13 14 15 16 17 18 19 20 21 22 23 24 25 26 27 28 29 30 31 32 33 34 35 36 37 38 39 40 41 42 43 44 45 46 47 48 49 50
000
FTUS43 KMKX 201723
TAFMKE
TAF
KMKE 201723Z 2018/2124 23004KT P6SM OVC070
      TEMPO 2019/2023 -SN
     FM210900 20004KT P6SM OVC030
     FM211200 18007KT P6SM OVC025
      TEMPO 2112/2116 -FZDZ
     FM211800 18013KT P6SM OVC015=

USA.gov is the U.S. government's official web portal to all federal, state and local government web resources and services.